Date,TemperatureHighF,TemperatureAvgF,TemperatureLowF,DewpointHighF,DewpointAvgF,DewpointLowF,HumidityHigh,HumidityAvg,HumidityLow,PressureMaxIn,PressureMinIn,WindSpeedMaxMPH,WindSpeedAvgMPH,GustSpeedMaxMPH,PrecipitationSumIn
2013-5-1,83.0,73.8,60.9,55.1,51.2,44.0,71,48,27,30.06,29.84,5,2,16,0.00
2013-5-2,60.7,52.3,41.3,50.0,43.7,37.6,92,73,58,30.17,30.04,7,3,13,0.04
2013-5-3,55.3,43.9,39.0,54.8,43.0,37.6,99,97,92,30.12,29.80,7,3,16,1.59
2013-5-4,64.1,57.3,53.9,56.7,54.8,52.2,97,91,69,30.01,29.82,4,0,11,0.20
2013-5-5,73.8,60.5,49.6,55.6,49.9,39.6,99,73,32,30.01,29.89,5,1,11,0.00
2013-5-6,74.5,64.7,54.8,53.2,47.4,40.6,84,57,30,30.01,29.92,6,1,13,0.00
2013-5-7,79.5,67.9,52.2,48.0,41.6,35.6,72,41,22,30.01,29.93,1,0,5,0.00
2013-5-8,82.0,68.1,51.0,55.8,47.2,41.9,83,52,25,29.99,29.91,1,0,6,0.00
2013-5-9,68.7,63.2,59.6,61.2,57.8,54.8,97,83,72,29.94,29.85,2,0,7,0.28
2013-5-11,44.0,42.5,40.7,29.1,28.6,28.0,62,58,53,30.12,30.10,0,0,0,0.00
2013-5-12,58.1,46.7,33.8,33.3,28.7,24.4,83,53,29,30.20,30.10,5,1,12,0.00
2013-5-13,70.9,55.0,36.0,40.9,34.3,28.6,86,51,23,30.18,29.93,2,0,10,0.00
2013-5-14,91.9,73.0,54.5,61.1,52.5,39.8,73,51,29,29.93,29.62,7,2,14,0.00
2013-5-15,81.4,73.7,63.6,61.2,53.8,45.9,69,51,30,29.81,29.67,5,1,11,0.01
2013-5-16,82.8,70.7,58.0,61.0,53.8,45.3,94,59,29,29.90,29.79,2,0,6,0.06
2013-5-17,79.3,71.4,59.8,62.7,58.0,50.8,87,65,39,29.93,29.84,3,0,8,0.00
2013-5-18,81.6,71.9,63.7,64.9,61.9,59.5,94,72,50,29.96,29.83,3,0,11,0.00
2013-5-19,87.2,73.4,63.4,69.6,64.1,56.2,89,74,50,29.85,29.62,7,2,17,18.77
2013-5-20,81.6,69.7,61.0,65.4,59.8,-99.9,95,75,46,29.75,29.56,8,2,18,1.14
2013-5-21,79.2,69.5,60.9,62.9,59.6,56.8,95,73,48,29.67,29.61,5,-90,11,0.00
2013-5-22,72.2,63.9,58.3,57.9,55.1,52.4,88,74,51,29.78,29.59,5,2,11,0.01
2013-5-23,65.2,58.0,53.2,55.0,51.1,45.4,96,79,51,30.24,29.77,7,-4,11,0.04
2013-5-24,66.5,55.9,42.5,47.9,39.9,33.8,91,58,30,30.43,30.24,1,-79,5,0.00
2013-5-25,57.4,51.1,45.8,48.5,43.3,36.6,95,76,53,30.38,30.21,2,0,10,0.41
2013-5-26,65.2,55.4,49.8,57.8,52.5,46.7,97,90,76,30.24,29.99,3,0,7,1.92
2013-5-27,70.5,62.9,57.8,65.5,60.4,55.8,99,92,80,30.00,29.74,2,-25,8,0.07
2013-5-28,68.0,65.2,63.3,67.1,63.8,61.3,97,95,93,29.85,29.77,6,2,9,3.20
2013-5-29,83.9,75.0,61.8,69.0,64.4,59.5,95,71,56,29.83,29.73,5,-364,10,0.64
2013-5-30,83.0,72.0,61.8,69.1,64.1,59.0,96,77,59,29.80,29.67,9,-403,19,0.72
2013-5-31,72.4,65.6,61.7,68.0,63.0,57.6,96,91,79,29.83,29.65,4,-390,11,0.30